Regional Weather Roundup
Issued by NWS New Orleans/Baton Rouge, LA

Home | Current Version | Previous Version | Graphics & Text | Print | Product List | Glossary On
Versions: 1 2 3 4 5 6 7 8 9 10 11 12 13 14 15 16 17 18 19 20 21 22 23 24 25 26 27 28 29 30 31 32 33 34 35 36 37 38 39 40 41 42 43 44 45 46 47 48 49 50
826
ASUS44 KLIX 310011
RWRLIX
NEW ORLEANS REGIONAL WEATHER ROUNDUP
NATIONAL WEATHER SERVICE NEW ORLEANS LA
700 PM CDT MON MAR 30 2015

NOTE: "FAIR" INDICATES FEW OR NO CLOUDS BELOW 12,000 FEET WITH NO
      SIGNIFICANT WEATHER AND/OR OBSTRUCTIONS TO VISIBILITY.
      SKY/WX - SKY CONDITION AND SIGNIFICANT WEATHER.
      TMP - AIR TEMPERATURE.     DP    - DEWPOINT TEMPERATURE.
      RH  - RELATIVE HUMIDITY.   PRES  - PRESSURE.
      HI  - HEAT INDEX.          WCI   - WIND CHILL INDEX.

*  THESE STATIONS ARE NOT NWS OR FAA STATIONS AND ARE NOT UNDER
   NWS QUALITY CONTROL.

LAZ038-040-048-061>063-065>067-069-310100-
SOUTHEAST LOUISIANA

CITY           SKY/WX    TMP DP  RH WIND       PRES   REMARKS
N.O. AUDUBON   NOT AVBL
N.O. INTL ARPT PTCLDY    76  59  55 SW14      30.12S
6HR MIN TEMP:  76; 6HR MAX TEMP:  82;

N.O. LAKEFRONT MOCLDY    80  60  50 W3        30.12F
6HR MIN TEMP:  76; 6HR MAX TEMP:  82;

SLIDELL        CLEAR     78  61  55 SW3       30.11S
6HR MIN TEMP:  78; 6HR MAX TEMP:  82;

BATON ROUGE    PTCLDY    77  61  57 SW12      30.11S
6HR MIN TEMP:  77; 6HR MAX TEMP:  84;

BOOTHVILLE     CLEAR     74  65  73 SW12      30.16S
6HR MIN TEMP:  74; 6HR MAX TEMP:  78;

BELLE CHASSE   PTCLDY    74  62  66 SW12      30.12S
6HR MIN TEMP:  74; 6HR MAX TEMP:  81;

BOGALUSA*        N/A     80  55  41 W5        30.11F
6HR MIN TEMP:  79; 6HR MAX TEMP:  85;

GALLIANO*      CLEAR     75  62  63 SW9       30.15F
6HR MIN TEMP:  75; 6HR MAX TEMP:  82;

NEW ROADS*       N/A     77  57  50 SW8       30.11S
6HR MIN TEMP:  77; 6HR MAX TEMP:  82;

GONZALES*        N/A     76  61  60 SW6       30.12S
6HR MIN TEMP:  76; 6HR MAX TEMP:  82;

HAMMOND*       PTCLDY    79  57  47 W9        30.12S
HOUMA*         PTCLDY    73  64  73 SW6       30.15S
PORT FOURCHON* CLEAR     75  64  69 SW7       30.19F

$$

MSZ070-080>082-310100-
SOUTHERN MISSISSIPPI

CITY           SKY/WX    TMP DP  RH WIND       PRES   REMARKS
MCCOMB         CLEAR     76  55  48 W5        30.11S
6HR MIN TEMP:  76; 6HR MAX TEMP:  81;

GULFPORT       CLEAR     74  64  71 S6        30.11S
6HR MIN TEMP:  74; 6HR MAX TEMP:  79;

BILOXI         CLEAR     71  66  82 SW14      30.11S
6HR MIN TEMP:  71; 6HR MAX TEMP:  77;

PASCAGOULA     CLEAR     71  65  81 SW6       30.12S
6HR MIN TEMP:  71; 6HR MAX TEMP:  80;

STENNIS ARPT*  CLEAR     75  55  50 MISG      30.11F

$$

COASTAL OBSERVATIONS
LAKE AND NEARSHORE STATIONS

STATION/POSITION TIME  TEMP    WIND        PRES    WAVE
                       AIR SEA DIR/SP/G            HT/PER
                 (UTC) (F)     (DEG/KT/KT) (MB)    (FT/S)
PASCAGOULA       2300   72     200/ 13/ 17 1019.6
WAVELAND YACHT   2300   75 67  190/  8/ 11 1019.8
GRAND ISLE       2300   74 70  220/  7/ 12 1021.0
SOUTHWEST PASS   2300   77 55  210/  4/  5 1022.0
NEW CANAL        2300           40/  4/  4   N/A
SHELL BEACH      2300   77 71  220/ 17/ 20 1020.1

OFFSHORE STATIONS

STATION/POSITION TIME  TEMP    WIND        PRES    WAVE
                       AIR SEA DIR/SP/G            HT/PER
                 (UTC) (F)     (DEG/KT/KT) (MB)    (FT/S)
64 S DAUPHIN ISL 2350   71 71  200/ 14/ 16 1021.5    2/ 5

$$




USA.gov is the U.S. government's official web portal to all federal, state and local government web resources and services.